Regional Weather Roundup
Issued by NWS Charleston, SC

Current Version | Previous Version | Graphics & Text | Print | Product List | Glossary On
Versions: 1 2 3 4 5 6 7 8 9 10 11 12 13 14 15 16 17 18 19 20 21 22 23 24 25 26 27 28 29 30 31 32 33 34 35 36 37 38 39 40 41 42 43 44 45 46 47 48 49 50
000
ASUS42 KCHS 221227
RWRCHS

Regional Weather Roundup
National Weather Service Charleston SC
700 AM EST THU FEB 22 2018

NOTE: "fair" indicates few or no clouds below 12,000 feet with no
significant weather and/or obstructions to visibility.

Not all stations are quality controlled. Use data with caution,
especially dewpoint observations.

SCZ027-030-031-034>040-042>050-221300-
...Southeast South Carolina...

CITY           SKY/WX    TMP DP  RH WIND       PRES   REMARKS
N Charleston   FAIR      62  61  96 CALM      30.46R FOG
6HR MIN TEMP:  60; 6HR MAX TEMP:  67;

Waterfront Prk   N/A     63  63 100 CALM      30.31R
Mount Pleasant FAIR      61  61 100 CALM      30.47R
Johns Island   FOG       63  63 100 CALM      30.47R VSB<1/4
Pinopolis        N/A    N/A N/A N/A VRB2      30.36
Moncks Corner  FOG       57  55  94 CALM      30.47R VSB 1/4
Summerville    FOG       57  57 100 CALM      30.47R VSB 1/4
Beaufort MCAS  FAIR      61  61 100 CALM      30.46R
6HR MIN TEMP:  61; 6HR MAX TEMP:  69;

Beaufort Arpt  FOG       61  61 100 CALM      30.46R VSB<1/4
Hilton Head Is FOG       61  61 100 CALM      30.45S VSB 1/4
Walterboro     FOG       61  61 100 CALM      30.48R VSB<1/4
Allendale      CLOUDY    68  66  94 VRB5      30.46R

...Southern Midlands and Pee Dee...

CITY           SKY/WX    TMP DP  RH WIND       PRES   REMARKS
Georgetown     FAIR      63  63 100 S3        30.48R
Kingstree      FOG       61  59  94 CALM      30.48R VSB<1/4
Orangeburg     CLOUDY    67  65  93 SW5       30.47R
6HR MIN TEMP:  66; 6HR MAX TEMP:  68;

Barnwell         N/A     70  68  94 CALM      30.47R
Aiken          CLOUDY    64  64 100 CALM      30.49R
Manning        HAZE      63  54  72 MISG      30.48R VSB<1/4
Columbia       CLOUDY    69  67  93 CALM      30.45R
6HR MIN TEMP:  68; 6HR MAX TEMP:  70;

Sumter         CLOUDY    66  66 100 S5        30.44R
6HR MIN TEMP:  62; 6HR MAX TEMP:  66;

Florence       FOG       64  64 100 S3        30.47R VSB 1/4
6HR MIN TEMP:  60; 6HR MAX TEMP:  65;

Myrtle Beach   CLOUDY    66  65  96 S8        30.48R
N Myrtle Beach CLOUDY    65  65 100 SW6       30.47R
6HR MIN TEMP:  63; 6HR MAX TEMP:  67;


$$

GAZ063-065-086>088-099>101-113>116-118-119-134>141-150-221300-
...Southeast Georgia...

CITY           SKY/WX    TMP DP  RH WIND       PRES   REMARKS
Savannah Arpt  FAIR      60  60 100 CALM      30.46R FOG
6HR MIN TEMP:  60; 6HR MAX TEMP:  67;

Hunter AAF     CLEAR     61  59  94 CALM      30.43R FOG
6HR MIN TEMP:  61; 6HR MAX TEMP:  69;

Fort Stewart   PTCLDY    59  59 100 CALM      30.43R FOG
6HR MIN TEMP:  59; 6HR MAX TEMP:  65;

Statesboro     CLOUDY    67  32  26 CALM      30.46R
Sylvania       CLOUDY    67  67 100 CALM      30.47R FOG
Claxton        FOG       67  67  99 CALM      30.45R VSB 1/4

...CSRA, Central and far Southeast Georgia...

CITY           SKY/WX    TMP DP  RH WIND       PRES   REMARKS
Thomson        MOCLDY    67  63  88 SW5       30.50R
Augusta-Bush   CLOUDY    68  65  90 CALM      30.45R
6HR MIN TEMP:  68; 6HR MAX TEMP:  72;

Augusta-Daniel CLOUDY    70  65  84 S3        30.46R
Swainsboro     RAIN      68  68 100 SE5       30.46S
Vidalia        CLOUDY    70  68  94 CALM      30.46R
Eastman        CLOUDY    70  60  70 SE5       30.47R
Hazlehurst     FAIR      68  68 100 CALM      30.44R
Alma           CLOUDY    67  65  93 SE3       30.43R
6HR MIN TEMP:  68; 6HR MAX TEMP:  70;

Waycross       CLOUDY    68  65  90 CALM      30.44R
Jesup          CLOUDY    63  61  94 CALM      30.45R FOG
Baxley         CLOUDY    64  64 100 CALM      30.44R FOG
Brunswick      FOG       61  59  94 CALM      30.45R VSB<1/4
Saint Simons   FAIR      65  64  97 CALM      30.43R
6HR MIN TEMP:  65; 6HR MAX TEMP:  68;


$$

SCZ027-028-034-036>038-045-046-048>050-GAZ119-141-221300-
...Lake and Supplemental Coastal Observations...

STATION/POSITION TIME  TEMP    WIND        PRES    WAVE   SWELL
                       AIR SEA DIR/SP/G            HT/PER HT/PER/DIR
                 (UTC) (F)     (DEG/KT/KT) (MB)    (FT/S) (FT/S/D)
Winyah Bay       1145   63        CALM     1032.0R
Lake Murray      1130   63     180/  4/  4 1030.1R
ACE Basin NERRS  1145   61        CALM     1031.0S
Fort Pulaski     1200   63 62   CALM  /  1 1031.4
Sapelo Island    1200   63        CALM     1031.0

$$

ANZ835-935-AMZ111-154-330-350-352-354-370-450-454-472-221300-
...C-MAN and Buoy Observations...

STATION/POSITION TIME  TEMP    WIND        PRES    WAVE   SWELL
                       AIR SEA DIR/SP/G            HT/PER HT/PER/DIR
                 (UTC) (F)     (DEG/KT/KT) (MB)    (FT/S) (FT/S/D)
Buoy 41004       1210   70 68  160/  4/  6 1031.5
Buoy 41008       1150   63 58   80/  2/  4 1030.4R   4/ 7   3/110/ 7
Folly Beach CMAN 1200   62      30/  2/  2 1032.0R
Capers Nearshore 1208   58 60   80/  4/  6 1031.3R
Fripp Nearshore  1108   58 60   50/  4/  6 1030.0R


STATION/POSITION TIME  TEMP    WIND        PRES    WAVE   SWELL
                       AIR SEA DIR/SP/G            HT/PER HT/PER/DIR
                 (UTC) (F)     (DEG/KT/KT) (MB)    (FT/S) (FT/S/D)
5E St. Marys GA  1200      63                N/A     3/ 6   2/100/13
Frying Pan Buoy  1210   71 70  180/  8/ 10 1032.1
Buoy 41025       1210   71 68  210/ 10/ 12 1032.9
Cape Lookout NC  1200          210/  6/  8 1032.6R
Buoy 41002       1150   71 74   90/  8/ 10 1032.8R   7/ 9   7/120/ 9
Buoy 41010       NOT AVBL
St Augustine FL  1200   68 65   90/  2/  3 1029.8R


$$



USA.gov is the U.S. government's official web portal to all federal, state and local government web resources and services.